This is the latest recevied weather packets stored in our database for station/object DJ4RO-13. If no packets are shown the sender has not sent any weather packets the latest 10 day(s).
| Time | Temp. | Humidity | Pressure | Rain* | Wind** | Luminosity | Snow |
|---|---|---|---|---|---|---|---|
| 1777429068 | -0.56° C | 90% | 1033.8 hPa | 0 mm | - | 0 W/m² | - |
| 1777428748 | 0° C | 89% | 1034.1 hPa | 0 mm | - | 0 W/m² | - |
| 1777428430 | -0.56° C | 89% | 1033.8 hPa | 0 mm | - | 0 W/m² | - |
| 1777428108 | -0.56° C | 88% | 1033.8 hPa | 0 mm | - | 0 W/m² | - |
| 1777427789 | 0° C | 87% | 1034 hPa | 0 mm | - | 0 W/m² | - |
| 1777427468 | 0° C | 87% | 1033.9 hPa | 0 mm | - | 0 W/m² | - |
| 1777427148 | 0° C | 87% | 1033.8 hPa | 0 mm | - | 0 W/m² | - |
| 1777426828 | 0.56° C | 86% | 1033.9 hPa | 0 mm | - | 0 W/m² | - |
| 1777426509 | 0.56° C | 86% | 1033.9 hPa | 0 mm | - | 0 W/m² | - |
| 1777426188 | 0.56° C | 86% | 1033.6 hPa | 0 mm | - | 0 W/m² | - |
| 1777425869 | 0.56° C | 85% | 1033.7 hPa | 0 mm | - | 0 W/m² | - |
| 1777425548 | 0.56° C | 84% | 1033.6 hPa | 0 mm | - | 0 W/m² | - |
| 1777425229 | 0.56° C | 84% | 1033.7 hPa | 0 mm | - | 0 W/m² | - |
| 1777424908 | 0.56° C | 84% | 1033.7 hPa | 0 mm | - | 0 W/m² | - |
| 1777424589 | 0.56° C | 83% | 1033.6 hPa | 0 mm | - | 0 W/m² | - |
| 1777424268 | 1.11° C | 82% | 1033.8 hPa | 0 mm | - | 0 W/m² | - |
| 1777423948 | 1.11° C | 82% | 1033.4 hPa | 0 mm | - | 0 W/m² | - |
| 1777423629 | 1.11° C | 82% | 1033.5 hPa | 0 mm | - | 0 W/m² | - |
| 1777423292 | 0.56° C | 81% | 1033.5 hPa | 0 mm | - | 0 W/m² | - |
| 1777422972 | 0.56° C | 81% | 1033.6 hPa | 0 mm | - | 0 W/m² | - |
| 1777422653 | 1.11° C | 79% | 1033.4 hPa | 0 mm | - | 0 W/m² | - |
| 1777422332 | 1.11° C | 78% | 1033.5 hPa | 0 mm | - | 0 W/m² | - |
| 1777422013 | 1.67° C | 77% | 1033.3 hPa | 0 mm | - | 0 W/m² | - |
| 1777421693 | 1.67° C | 76% | 1033.3 hPa | 0 mm | - | 0 W/m² | - |
| 1777421372 | 1.67° C | 75% | 1033.3 hPa | 0 mm | - | 0 W/m² | - |
* Rain latest hour (hover to see other rain measurements)
** Current wind speed in m/s (hover to see current wind gust speed)